Tracking 18957 objects as of 22-Jan-2018
HD Live streaming from Space Station
objects crossing your sky now

FENGYUN 1C DEB

Track FENGYUN 1C DEB now!
10-day predictions


NORAD ID: 31539
Int'l Code: 1999-025BYE
Perigee: 570.8 km
Apogee: 598.8 km
Inclination: 99.1 °
Period: 96.2 minutes
Semi major axis: 6955 km
RCS: 0.0051 m2 (small)
Launch date: May 10, 1999
Source: People's Republic of China (PRC)
Launch site: Taiyaun Space Center, China (TSC)

Note: This is SATELLITE DEBRIS
aabbcc
Your satellite tracking list
Your tracking list is empty




NASA's NSSDC Master Catalog

Two Line Element Set (TLE):
1 31539U 99025BYE 18022.11513813 +.00012126 +00000-0 +10676-2 0  9996
2 31539 099.0537 348.3206 0020143 279.6890 080.2052 14.96524648563632
Source of the keplerian elements: AFSPC